Weather in Mezhdugornoye

Russia / Kemerovo Oblast     54°55′55″N   86°49′59″E
temp.,
°C
wind,
m/s
gust,
m/s
humid.,
%
clouds,
%
prec.,
mm/h
press.,
hPa
HPBL,
m
24 may, tue
tue2401:00+10ese22670 0.0 102417
04:00+8ese11755 0.0 102312
07:00+11nne12655 0.0 102389
10:00+19ne35350 0.0 1021872
13:00+24ne34250 0.0 10181366
16:00+26ne46220 0.0 10161667
19:00+23ne3640100 0.0 1016237
22:00+15nne3859100 0.0 1016137
25 may, wed
wed2501:00+14nne3105189 0.0 1015213
04:00+14nne3857100 0.0 1015189
07:00+16ne3962100 0.0 1015309
10:00+23ne5845100 0.0 1014870
13:00+26ne5731100 0.0 10141565
16:00+26nne563399 0.0 10141617
19:00+23nne51041100 0.0 1014610
22:00+16nne22642 0.0 101526
26 may, thu
thu2601:00+15nne2266100 0.0 101531
04:00+14ne267069 0.0 101596
07:00+17ne310682 0.0 1015287
10:00+23ne58490 0.0 10151057
13:00+25ne56395 0.0 10141801
16:00+26ne56371 0.0 10121857
19:00+23nne59420 0.0 1012828
22:00+17ne4134913 0.0 1012457
27 may, fri
fri2701:00+16ne4114691 0.0 1010352
04:00+14ne39510 0.0 1009232
07:00+15ne3760100 0.0 1009255
10:00+21ne464071 0.0 1008918
13:00+24nne56305 0.0 10081641
16:00+24nne56305 0.0 10081713
19:00+22nne474214 0.0 1009841
22:00+14ne39615 0.0 1011163
28 may, sat
sat2801:00+12nne22581 0.0 101117
04:00+10ene117283 0.0 101013
07:00+13ese1267100 0.0 1011112
10:00+19sse2349100 0.0 1010610
13:00+23ssw2240100 0.0 10091188
16:00+25ssw223532 0.0 10091222
19:00+23wnw1251100 0.0 100888
22:00+17nne1160100 0.0 100811